| time (UTC) | temp F | wind direction | speed MPH | gust MPH | rain 1hr in | rain 24hr in | rain mn in | humidity % | barometer mb |
| 20260509160053 | 44 | 123 | 0.0 | 6.0 | 0.06 | 0.09 | 0.09 | 92 | 1015.6 |
| 20260509154550 | 44 | 172 | 0.0 | 5.0 | 0.06 | 0.08 | 0.08 | 91 | 1015.9 |
| 20260509153053 | 44 | 126 | 1.0 | 5.0 | 0.05 | 0.06 | 0.06 | 90 | 1015.9 |
| 20260509151556 | 44 | 150 | 0.0 | 6.0 | 0.04 | 0.05 | 0.05 | 89 | 1015.9 |
| 20260509150047 | 45 | 110 | 0.0 | 6.0 | 0.03 | 0.03 | 0.03 | 86 | 1015.9 |
| 20260509144603 | 46 | 113 | 0.0 | 3.0 | 0.02 | 0.02 | 0.02 | 85 | 1015.8 |
| 20260509143103 | 46 | 126 | 1.0 | 5.0 | 0.01 | 0.01 | 0.01 | 83 | 1015.7 |
| 20260509141545 | 46 | 122 | 0.0 | 1.0 | 0.01 | 0.01 | 0.01 | 81 | 1015.6 |
| 20260509140044 | 46 | 131 | 0.0 | 2.0 | 0.00 | 0.00 | 0.00 | 78 | 1015.6 |
| 20260509134600 | 47 | 139 | 0.0 | 5.0 | 0.00 | 0.00 | 0.00 | 72 | 1015.7 |
| 20260509133046 | 48 | 141 | 0.0 | 8.0 | 0.00 | 0.00 | 0.00 | 66 | 1015.5 |
| 20260509131540 | 48 | 139 | 1.0 | 9.0 | 0.00 | 0.00 | 0.00 | 60 | 1015.5 |
| 20260509130051 | 48 | 125 | 0.0 | 7.0 | 0.00 | 0.00 | 0.00 | 60 | 1015.6 |
| 20260509124538 | 48 | 129 | 0.0 | 4.0 | 0.00 | 0.00 | 0.00 | 61 | 1015.6 |
| 20260509123035 | 47 | 187 | 1.0 | 5.0 | 0.00 | 0.00 | 0.00 | 61 | 1015.8 |
| 20260509121543 | 47 | 110 | 0.0 | 3.0 | 0.00 | 0.00 | 0.00 | 65 | 1015.7 |
| 20260509120031 | 46 | 125 | 0.0 | 3.0 | 0.00 | 0.00 | 0.00 | 66 | 1015.8 |
| 20260509114534 | 45 | 124 | 1.0 | 4.0 | 0.00 | 0.00 | 0.00 | 66 | 1015.9 |
| 20260509113032 | 44 | 117 | 0.0 | 1.0 | 0.00 | 0.00 | 0.00 | 70 | 1015.8 |
| 20260509111520 | 43 | 99 | 0.0 | 3.0 | 0.00 | 0.00 | 0.00 | 72 | 1015.7 |
| 20260509110019 | 43 | 122 | 1.0 | 3.0 | 0.00 | 0.00 | 0.00 | 73 | 1015.9 |
| 20260509104533 | 42 | 110 | 0.0 | 1.0 | 0.00 | 0.00 | 0.00 | 74 | 1015.9 |
| 20260509103018 | 41 | 158 | 0.0 | 2.0 | 0.00 | 0.00 | 0.00 | 73 | 1015.8 |
| 20260509101516 | 41 | 88 | 0.0 | 0.0 | 0.00 | 0.00 | 0.00 | 75 | 1015.6 |
| 20260509100013 | 41 | 49 | 0.0 | 0.0 | 0.00 | 0.00 | 0.00 | 74 | 1015.4 |
| 20260509094525 | 41 | 122 | 0.0 | 1.0 | 0.00 | 0.00 | 0.00 | 74 | 1015.2 |
| 20260509093010 | 41 | 122 | 0.0 | 0.0 | 0.00 | 0.00 | 0.00 | 73 | 1015.0 |
| 20260509091508 | 41 | 129 | 0.0 | 0.0 | 0.00 | 0.00 | 0.00 | 72 | 1014.8 |
| 20260509090009 | 41 | 48 | 0.0 | 0.0 | 0.00 | 0.00 | 0.00 | 73 | 1014.6 |
| 20260509084508 | 41 | 49 | 0.0 | 0.0 | 0.00 | 0.00 | 0.00 | 73 | 1014.6 |
| 20260509083009 | 41 | 49 | 0.0 | 0.0 | 0.00 | 0.00 | 0.00 | 72 | 1014.4 |
| 20260509081506 | 41 | 48 | 0.0 | 0.0 | 0.00 | 0.00 | 0.00 | 72 | 1014.5 |
| 20260509080005 | 42 | 48 | 0.0 | 2.0 | 0.00 | 0.00 | 0.00 | 71 | 1014.5 |
| 20260509074504 | 42 | 186 | 0.0 | 1.0 | 0.00 | 0.00 | 0.00 | 71 | 1014.4 |
| 20260509073004 | 42 | 186 | 0.0 | 0.0 | 0.00 | 0.00 | 0.00 | 70 | 1014.6 |
| 20260509071502 | 42 | 186 | 0.0 | 0.0 | 0.00 | 0.00 | 0.00 | 70 | 1014.8 |
| 20260509070001 | 42 | 186 | 0.0 | 0.0 | 0.00 | 0.00 | 0.00 | 71 | 1014.8 |
| 20260509064620 | 42 | 186 | 0.0 | 0.0 | 0.00 | 0.00 | 0.00 | 71 | 1014.8 |
| 20260509063100 | 41 | 186 | 0.0 | 0.0 | 0.00 | 0.00 | 0.00 | 73 | 1014.7 |
| 20260509061559 | 42 | 186 | 0.0 | 1.0 | 0.00 | 0.00 | 0.00 | 72 | 1014.9 |
| 20260509060055 | 42 | 187 | 0.0 | 0.0 | 0.00 | 0.00 | 0.00 | 71 | 1014.7 |
| 20260509054601 | 42 | 187 | 0.0 | 0.0 | 0.00 | 0.00 | 0.00 | 70 | 1014.6 |
| 20260509053100 | 43 | 187 | 0.0 | 0.0 | 0.00 | 0.00 | 0.00 | 70 | 1014.6 |
| 20260509051552 | 43 | 187 | 0.0 | 0.0 | 0.00 | 0.00 | 0.00 | 70 | 1014.5 |
| 20260509050048 | 43 | 187 | 0.0 | 0.0 | 0.00 | 0.00 | 0.00 | 69 | 1014.5 |
| 20260509044546 | 43 | 187 | 0.0 | 0.0 | 0.00 | 0.00 | 0.00 | 69 | 1014.5 |
| 20260509043044 | 44 | 187 | 0.0 | 0.0 | 0.00 | 0.00 | 0.00 | 68 | 1014.4 |
| 20260509041608 | 44 | 187 | 0.0 | 1.0 | 0.00 | 0.00 | 0.00 | 67 | 1014.3 |
| 20260509040038 | 44 | 187 | 0.0 | 1.0 | 0.00 | 0.00 | 0.00 | 67 | 1014.3 |
| 20260509034534 | 44 | 187 | 0.0 | 1.0 | 0.00 | 0.00 | 0.00 | 66 | 1014.2 |
| 20260509033036 | 44 | 187 | 0.0 | 0.0 | 0.00 | 0.00 | 0.00 | 66 | 1014.0 |
| 20260509031535 | 45 | 177 | 0.0 | 1.0 | 0.00 | 0.00 | 0.00 | 65 | 1013.9 |
| 20260509030032 | 45 | 151 | 0.0 | 1.0 | 0.00 | 0.00 | 0.00 | 64 | 1013.8 |
| 20260509024529 | 45 | 169 | 0.0 | 1.0 | 0.00 | 0.00 | 0.00 | 64 | 1013.7 |
| 20260509023030 | 46 | 188 | 0.0 | 1.0 | 0.00 | 0.00 | 0.00 | 63 | 1013.6 |
| 20260509021534 | 46 | 188 | 0.0 | 1.0 | 0.00 | 0.00 | 0.00 | 63 | 1013.5 |
| 20260509020040 | 46 | 187 | 0.0 | 1.0 | 0.00 | 0.00 | 0.00 | 62 | 1013.2 |
| 20260509014524 | 46 | 187 | 0.0 | 3.0 | 0.00 | 0.00 | 0.00 | 60 | 1013.0 |
| 20260509013035 | 46 | 187 | 0.0 | 1.0 | 0.00 | 0.00 | 0.00 | 59 | 1012.7 |
| 20260509011520 | 46 | 101 | 0.0 | 5.0 | 0.00 | 0.00 | 0.00 | 59 | 1012.5 |
| 20260509010017 | 47 | 169 | 1.0 | 3.0 | 0.00 | 0.00 | 0.00 | 57 | 1012.2 |
| 20260509004519 | 47 | 49 | 0.0 | 3.0 | 0.00 | 0.00 | 0.00 | 56 | 1012.0 |
| 20260509003014 | 48 | 186 | 0.0 | 5.0 | 0.00 | 0.00 | 0.00 | 55 | 1011.8 |
| 20260509001512 | 48 | 187 | 0.0 | 3.0 | 0.00 | 0.00 | 0.00 | 53 | 1011.6 |
| 20260509000010 | 48 | 187 | 0.0 | 6.0 | 0.00 | 0.00 | 0.00 | 50 | 1011.2 |
| 20260508234508 | 49 | 187 | 0.0 | 0.0 | 0.00 | 0.00 | 0.00 | 50 | 1010.9 |
| 20260508233006 | 51 | 188 | 0.0 | 0.0 | 0.00 | 0.00 | 0.00 | 44 | 1010.7 |
| 20260508231504 | 52 | 188 | 0.0 | 0.0 | 0.00 | 0.00 | 0.00 | 43 | 1010.5 |
| 20260508230006 | 52 | 47 | 1.0 | 6.0 | 0.00 | 0.00 | 0.00 | 40 | 1010.5 |
| 20260508224504 | 52 | 187 | 0.0 | 1.0 | 0.00 | 0.00 | 0.00 | 40 | 1010.4 |
| 20260508223004 | 53 | 188 | 0.0 | 2.0 | 0.00 | 0.00 | 0.00 | 38 | 1010.3 |
| 20260508221503 | 54 | 187 | 0.0 | 2.0 | 0.00 | 0.00 | 0.00 | 39 | 1010.3 |
| 20260508220002 | 54 | 46 | 0.0 | 3.0 | 0.00 | 0.00 | 0.00 | 37 | 1010.2 |
| 20260508214506 | 55 | 44 | 0.0 | 3.0 | 0.00 | 0.00 | 0.00 | 37 | 1010.1 |
| 20260508213001 | 54 | 42 | 0.0 | 7.0 | 0.00 | 0.00 | 0.00 | 39 | 1010.0 |
| 20260508211600 | 54 | 187 | 0.0 | 5.0 | 0.00 | 0.00 | 0.00 | 37 | 1010.0 |
| 20260508210101 | 56 | 185 | 2.0 | 12.0 | 0.00 | 0.00 | 0.00 | 35 | 1009.9 |
| 20260508204601 | 56 | 186 | 2.0 | 9.0 | 0.00 | 0.00 | 0.00 | 34 | 1009.8 |
| 20260508203058 | 56 | 46 | 2.0 | 15.0 | 0.00 | 0.00 | 0.00 | 33 | 1009.7 |
| 20260508201556 | 57 | 187 | 4.0 | 11.0 | 0.00 | 0.00 | 0.00 | 34 | 1009.6 |
| 20260508200109 | 56 | 186 | 4.0 | 14.0 | 0.00 | 0.00 | 0.00 | 34 | 1009.5 |
| 20260508194553 | 57 | 187 | 2.0 | 14.0 | 0.00 | 0.00 | 0.00 | 34 | 1009.5 |
| 20260508193131 | 56 | 186 | 2.0 | 10.0 | 0.00 | 0.00 | 0.00 | 34 | 1009.5 |
| 20260508191550 | 55 | 187 | 2.0 | 11.0 | 0.00 | 0.00 | 0.00 | 35 | 1009.5 |
| 20260508190053 | 56 | 49 | 1.0 | 7.0 | 0.00 | 0.00 | 0.00 | 35 | 1009.5 |
| 20260508184551 | 55 | 93 | 2.0 | 9.0 | 0.00 | 0.00 | 0.00 | 35 | 1009.6 |
| 20260508183107 | 57 | 188 | 3.0 | 13.0 | 0.00 | 0.00 | 0.00 | 33 | 1009.6 |
| 20260508181559 | 57 | 174 | 3.0 | 12.0 | 0.00 | 0.00 | 0.00 | 33 | 1009.5 |
| 20260508180042 | 56 | 187 | 2.0 | 10.0 | 0.00 | 0.00 | 0.00 | 34 | 1009.5 |
| 20260508174541 | 55 | 58 | 2.0 | 11.0 | 0.00 | 0.00 | 0.00 | 36 | 1009.5 |
| 20260508173040 | 54 | 214 | 2.0 | 9.0 | 0.00 | 0.00 | 0.00 | 35 | 1009.5 |
| 20260508171539 | 54 | 214 | 3.0 | 11.0 | 0.00 | 0.00 | 0.00 | 33 | 1009.5 |
| 20260508170038 | 55 | 58 | 1.0 | 12.0 | 0.00 | 0.00 | 0.00 | 34 | 1009.5 |
| 20260508164539 | 56 | 44 | 3.0 | 13.0 | 0.00 | 0.00 | 0.00 | 33 | 1009.5 |
| 20260508163036 | 55 | 186 | 4.0 | 9.0 | 0.00 | 0.00 | 0.00 | 33 | 1009.4 |
| 20260508161536 | 56 | 187 | 2.0 | 12.0 | 0.00 | 0.00 | 0.00 | 34 | 1009.3 |